スイフト-ゲーレルス彗星

64P/Swift-Gehrels (2009)

English version
Home page
Total 6,336 html files since Dec. 4, 1995
Updated on October 5, 2005

---------------------------------------------------------------------

・ プロフィール

・ 軌道要素

Epoch 2009 June 18.0 TT = JDT 2455000.5  
T 2009 June 14.29410 TT                                 Muraoka 
q   1.3770112            (2000.0)            P               Q
n   0.10551124     Peri.   96.30475     +0.78774809     -0.60130544
a   4.4354419      Node   300.74117     +0.48554549     +0.73971509
e   0.6895436      Incl.    8.95145     +0.37907588     +0.30208171
P   9.34
>From 57 observations 1973-2001, mean residual 0".89.  Nongravitational
   parameters A1 = +0.27 +/- 0.02, A2 = +0.0255 +/- 0.0004.

・ 星図

・ 光度変化

        m1 = 9.5 + 5 logΔ + 15.0 log r

---------------------------------------------------------------------

軌道要素は村岡健治氏の計算によるものです。
星図は StellaNavigator Ver.2.0 for Windows (アストロアーツ 編著 / アスキー出版局刊) で作成したものです。
光度グラフはComet for Windowsで作成したものです。

---------------------------------------------------------------------

Copyright(C) 1995-2008 Seiichi Yoshida (comet@aerith.net). All rights reserved.